Location: Gwatt
(46.7204°N, 7.6223°E)
Time: 17:43:09
(UTC+00:00)

deb Explorer IX - Pass Details

Date: 29 January 2021
Orbit: 537 x 1102 km, 38.8° (Epoch: 04 March)

Event Time Altitude Azimuth Distance (km) Brightness Sun altitude
Rises 19:41:16 0° 269° (W) 3,625 ? -33.0°
Reaches altitude 10° 19:44:39 10° 255° (WSW) 2,571 ? -33.5°
Enters shadow 19:48:33 21° 215° (SW) 1,804 ? -34.2°
Maximum altitude 19:49:02 21° 209° (SSW) 1,778 - -34.3°
Drops below altitude 10° 19:52:59 10° 161° (SSE) 2,272 - -34.9°
Sets 19:55:46 0° 145° (SE) 3,088 - -35.4°
